map of QPG home
Great Circle Mapper logo
QPG - Airport
Location
City:  Singapore, Singapore
Name:Paya Lebar Airport
ICAO / IATA:WSAP / QPG

Details
Type:Airport (Aerodrome, Airfield)
Use:Public/Civil, International (customs by prior arrangement)
Latitude:121'21"N (1.355722)
Longitude:10354'10"E (103.902778)
Elevation:65 ft (20 m)
Variation:0.23E (WMM2015 magnetic declination)
-0.00 annual change
Runways:1
Longest:12402 × 200 ft (3780 × 61 m), paved

Time
Time Zone:UTC+8
Local Time:

Weather
METAR:WSAP 020400Z 03013KT 9999 SCT020 BKN300 32/23 Q1012

Related Locations
Nearby:
Farthest:TPN: 12381 mi / 19925 km
Tiputini, Oreliana, EC

Find:

   beyond  
but within

Other Information
Maps:
NOTAMs:
Links:
Sources:

  
flag of Singapore   

Airport Diagram

Airport diagram for QPG

Airport diagram PDF

Sectional Chart

Flight Planning
at skyvector.com

Satellite Image

Google Maps Satellite View

 

Copyright © 2004-2015 Karl L. Swartz. All rights reserved.
The Great Circle Mapper name and logo are trademarks of the Great Circle Mapper.
All other trademarks mentioned herein belong to their respective owners.
Please see credits for attibutions and further copyright information.

  Follow gcmap on Facebook Follow gcmap on Twitter Follow gcmap on Google+

hCard Microformat

Geo Microformat